Regional Weather Roundup
Issued by NWS Upton, NY

Current Version | Previous Version | Graphics & Text | Print | Product List | Glossary Off
Versions: 1 2 3 4 5 6 7 8 9 10 11 12 13 14 15 16 17 18 19 20 21 22 23 24 25 26 27

000
ASUS41 KOKX 191609
RWROKX

REGIONAL WEATHER ROUNDUP
NATIONAL WEATHER SERVICE NEW YORK NY
1200 PM EDT SAT AUG 19 2017

NOTE: "FAIR" INDICATES FEW OR NO CLOUDS BELOW 12,000 FEET WITH NO
SIGNIFICANT WEATHER AND/OR OBSTRUCTIONS TO VISIBILITY.

NYZ071-072-176-178-NJZ106-104-191700-
NEW YORK CITY METRO AREA

CITY           SKY/WX    TMP DP  RH WIND       PRES   REMARKS
Central Park   SUNNY     83  65  54 CALM      29.89S
Bronx Bot Gard   N/A     84  63  48 W3        29.89S
LaGuardia APRT PTSUNNY   84  66  54 NW3       29.85S
Kennedy INTL   PTSUNNY   84  72  67 SW10      29.87S
Breezy Point     N/A     79 N/A N/A S8          N/A
Newark/Liberty MOSUNNY   84  63  49 NW10      29.86S
Teterboro      MOSUNNY   84  65  52 VRB3      29.85S
$$

NYZ177-179-078>081-191700-
LONG ISLAND NEW YORK

CITY           SKY/WX    TMP DP  RH WIND       PRES   REMARKS
Jones Beach      N/A     79 N/A N/A SW6G12      N/A
Matinecock PT    N/A     79 N/A N/A SW6         N/A
Farmingdale    MOSUNNY   85  63  47 VRB3      29.86S
MacArthur/ISP  PTSUNNY   84  70  62 SW7       29.85S
Shirley        MOSUNNY   86  68  54 SW5       29.86S
Mt Sinai Harb    N/A     82 N/A N/A NW2         N/A
Westhampton    MOSUNNY   84  67  56 S8        29.87S
East Hampton   FAIR      83  62  48 SW3       29.85R
Montauk          N/A     80  72  76 W9        29.86R
$$

NYZ052-065-067-191700-
HUDSON VALLEY

CITY           SKY/WX    TMP DP  RH WIND       PRES   REMARKS
White Plains   MOSUNNY   82  63  52 NW7       29.87S
Larchmont Harb   N/A     79 N/A N/A SE7         N/A
Croton On Huds   N/A     82 N/A N/A CALM        N/A
Newburgh       MOSUNNY   81  68  65 W7        29.88S
Montgomery     MOSUNNY   82  64  54 VRB5      29.86S
Poughkeepsie   MOSUNNY   80  66  62 MISG      29.84F
Albany         PTSUNNY   81  64  56 W8        29.84S
$$

NJZ001-105-106-008-010-013-015-019>022-104-191700-
NEW JERSEY

CITY           SKY/WX    TMP DP  RH WIND       PRES   REMARKS
Newark/Liberty MOSUNNY   84  63  49 NW10      29.86S
Teterboro      MOSUNNY   84  65  52 VRB3      29.85S
Caldwell       MOSUNNY   83  63  50 VRB3      29.87S
Somerville     SUNNY     84  65  52 VRB3      29.86S
Linden         FAIR      84  62  48 CALM      29.87R
Perth Amboy      N/A     81 N/A N/A W10         N/A
Sussex         MOSUNNY   81  64  56 VRB3      29.88R
Andover          N/A     80  64  58 VRB7      29.89S
Trenton        MOSUNNY   84  65  52 N8        29.88S
Millville      MOSUNNY   86  71  60 NW6       29.90S HX  91
Atlantic City  SUNNY     85  71  63 VRB3      29.89S HX  90
Wrightstown    MOSUNNY   85  67  56 W6        29.87R
Toms River     MOSUNNY   86  68  54 VRB7      29.89S
Belmar         MOSUNNY   84  68  58 W9        29.89S
$$

PAZ047>061-062-071-191700-
EASTERN PENNSYLVANIA

CITY           SKY/WX    TMP DP  RH WIND       PRES   REMARKS
Philadelphia   MOSUNNY   85  62  46 W9        29.90R
Allentown      SUNNY     82  63  52 MISG      29.90R
Scranton       PTSUNNY   79  63  57 NW9       29.91R
$$

CTZ002-004>006-009-010-012-RIZ004-006-007-MAZ004-011-015-191700-
SOUTHERN NEW ENGLAND
 IN CT

CITY           SKY/WX    TMP DP  RH WIND       PRES   REMARKS
Bradley INTL   PTSUNNY   85  66  53 W8        29.84S
Hartford       PTSUNNY   84  65  52 VRB5      29.83S
Danbury        MOSUNNY   82  66  58 S5        29.87S
Wtrbury/Oxford MOSUNNY   80  67  64 VRB3      29.88S
Norwalk Harbor   N/A     75 N/A N/A S9          N/A
Bridgeport     MOSUNNY   82  71  69 SW13      29.85S
Meriden        MOSUNNY   82  65  56 CALM      29.84S
New Haven      MOSUNNY   80  71  74 S9        29.85S
Chester        FAIR      82  64  54 VRB5      29.85F
Groton         SUNNY     79  71  76 SW14      29.83R
Wilimantic     MOSUNNY   84  63  49 SW5       29.83S

 IN RI

CITY           SKY/WX    TMP DP  RH WIND       PRES   REMARKS
Providence     PTSUNNY   88  70  55 SW9       29.82S HX  93
Block Island   MOSUNNY   80  72  76 W8        29.85R
Westerly       SUNNY     85  71  63 SW9       29.84R HX  90
 IN MA

CITY           SKY/WX    TMP DP  RH WIND       PRES   REMARKS
Boston         PTSUNNY   70  66  87 SE8       29.82S
Worcester      SUNNY     80  62  54 W8        29.86R
Westfield      PTSUNNY   83  65  54 SW10      29.84S
Provincetown   CLOUDY    68  65  90 N7        29.83S FOG
Nantucket      MOSUNNY   76  73  91 SW10      29.83S
$$

ANZ330-335-338-340-345-350-353-355-191700-
COASTAL MARINE OBSERVATIONS


STATION/POSITION TIME  SKY/WX   TEMP    WIND        PRES    VSBY  WAVE
                                AIR SEA DIR/SP/G                  HT/PER
                 (UTC)          (F)     (DEG/KT/KT) (MB)    (MI)  (FT/S)
NY HARB ENTRANCE 1550            76 76  240/  6/  6 1011.1          3/ 6
GREAT SOUTH BAY  1530            78 79  200/  8/  8   N/A
23 SSW MONTAUK P 1550            73 72              1011.4          4/ 7
15 E BARNEGAT LI 1530               77                N/A           3/ 6
HUDSON CANYON    1550            75 75  220/  6/  6 1011.5          4/ 6
KINGS POINT      1548            81 73  200/  1/  1 1011.1
EXECUTION ROCKS  NOT AVBL
WESTERN LI SOUND NOT AVBL
CENTRAL LI SOUND NOT AVBL
EASTERN LI SOUND NOT AVBL
ROBBINS REEF     1542                   170/  6/  8 1011.9
$$


>>>>>>>>>>>>>>>>>>>>>>>>>>>> KEY <<<<<<<<<<<<<<<<<<<<<<<<<<<
>                                                          <
>     SKY/WX - Sky Condition/Present Weather               <
>     TMP    - Temperature in Fahrenheit                   <
>     DP     - Dew Point in Fahrenheit                     <
>     RH     - Relative Humidity in Percent                <
>     WIND   - Direction (from) and Speed in MPH           <
>     PRES   - Mean Sea Level Pressure (inches of Hg)      <
>     WCI    - Wind Chill Index                            <
>     VSB    - VISIBILITY IN MILES                         <
>     HX     - HEAT INDEX                                  <
>     TC     - TEMPERATURE IN CELSIUS                      <
>     VRB    - VARIABLE WIND DIRECTION                     <
>                                                          <
>>>>>>>>>>>>>>>>>>>>>>>>>>>> KEY <<<<<<<<<<<<<<<<<<<<<<<<<<<




USA.gov is the U.S. government's official web portal to all federal, state and local government web resources and services.